{"data":{"norad_id":49305,"intl_designator":"2021-090AC","name":"ONEWEB-0379","alt_names":[],"object_type":"PAYLOAD","status":"ACTIVE","operator":null,"country":"UK","launch_date":"2021-10-14","launch_site_code":"VOSTO","launch_vehicle":null,"mission":null,"orbit_class":"UNKNOWN","rcs_meters":null,"size_class":null,"mass_kg":null,"dimensions":null,"purposes":["comms"],"wikipedia_slug":null,"has_3d_model":false,"image_url":null,"decayed_at":null,"tle_current":{"epoch":"2026-05-25T03:01:59.828160Z","epoch_age_seconds":74828,"freshness":"FRESH","line1":"1 49305U 21090AC  26145.12638690 -.00000159  00000+0 -46341-3 0  9993","line2":"2 49305  87.8944 294.3067 0001946  95.1356 264.9996 13.14501742224532","mean_motion":13.14501742,"eccentricity":0.0001946,"inclination_deg":87.8944,"raan_deg":294.3067,"arg_perigee_deg":95.1356,"mean_anomaly_deg":264.9996,"bstar":-0.00046341,"rev_number":22453,"period_min":109.54721123527,"perigee_km":1204.3185909604,"apogee_km":1207.2702570706,"semimajor_km":7583.9314240155,"source":"CELESTRAK","updated_at":"2026-05-25T13:38:22.525025Z"}}}